GSAT0212 (GALILEO 16)

Last updated on Fri Oct 11 2024 00:02:28 GMT+0000 (Coordinated Universal Time)

1 41860U 16069B 24283.27395781 .00000060 00000+0 00000+0 0 9996 2 41860 55.1394 118.1485 0002278 32.5282 327.5581 1.70474293 49154
UTC large
Height (km)
Speed (km/s)
/
Latitude / Longitude
Inclination (degrees)
Orbital Period (minutes)
Azimuth
Elevation
Range (km)
Doppler Factor

Next 0 passes for location: London (51.5072 / 0.1276)

Sorry there are no passes over London.